TimeCST,TemperatureF,Dew PointF,Humidity,Sea Level PressureIn,VisibilityMPH,Wind Direction,Wind SpeedMPH,Gust SpeedMPH,PrecipitationIn,Events,Conditions,WindDirDegrees,DateUTC
12:15 AM,22.8,16.7,77,30.32,10.0,South,13.8,-,N/A,,Clear,190,2012-11-27 06:15:00
12:35 AM,23.0,16.7,77,30.32,10.0,South,10.4,-,N/A,,Clear,190,2012-11-27 06:35:00
12:55 AM,22.6,16.5,77,30.32,10.0,South,9.2,-,N/A,,Clear,190,2012-11-27 06:55:00
1:15 AM,21.9,15.8,77,30.31,10.0,SSW,8.1,-,N/A,,Clear,200,2012-11-27 07:15:00
1:55 AM,22.1,15.8,77,30.28,10.0,South,11.5,-,N/A,,Clear,190,2012-11-27 07:55:00
2:15 AM,22.1,16.0,77,30.26,10.0,SSW,11.5,-,N/A,,Clear,200,2012-11-27 08:15:00
2:35 AM,21.4,15.8,79,30.26,10.0,SSW,8.1,-,N/A,,Clear,210,2012-11-27 08:35:00
2:55 AM,22.6,17.6,81,30.26,10.0,SSW,11.5,-,N/A,,Clear,200,2012-11-27 08:55:00
3:15 AM,23.7,18.3,80,30.24,10.0,SW,12.7,-,N/A,,Clear,220,2012-11-27 09:15:00
3:35 AM,23.2,18.3,82,30.24,10.0,SW,10.4,-,N/A,,Clear,220,2012-11-27 09:35:00
3:55 AM,21.9,17.2,82,30.23,10.0,WSW,4.6,-,N/A,,Clear,240,2012-11-27 09:55:00
4:15 AM,24.1,19.9,84,30.22,10.0,SSW,10.4,-,N/A,,Clear,210,2012-11-27 10:15:00
4:35 AM,24.6,19.8,82,30.22,10.0,SSW,10.4,-,N/A,,Clear,200,2012-11-27 10:35:00
4:55 AM,23.0,18.5,83,30.20,10.0,SSW,9.2,-,N/A,,Clear,200,2012-11-27 10:55:00
5:15 AM,22.1,18.3,85,30.20,10.0,SSW,8.1,-,N/A,,Clear,200,2012-11-27 11:15:00
5:55 AM,23.5,19.4,84,30.19,10.0,SSW,11.5,-,N/A,,Clear,200,2012-11-27 11:55:00
6:35 AM,23.9,20.1,85,30.17,10.0,SW,9.2,-,N/A,,Clear,220,2012-11-27 12:35:00
6:55 AM,23.5,19.8,85,30.17,10.0,SW,8.1,-,N/A,,Clear,230,2012-11-27 12:55:00
7:15 AM,22.1,18.7,87,30.17,10.0,SW,4.6,-,N/A,,Clear,230,2012-11-27 13:15:00
7:35 AM,17.6,14.9,89,30.18,10.0,WSW,8.1,-,N/A,,Clear,240,2012-11-27 13:35:00
7:55 AM,17.4,14.9,90,30.18,10.0,SSW,5.8,-,N/A,,Clear,210,2012-11-27 13:55:00
8:15 AM,19.6,17.2,91,30.18,10.0,SW,3.5,-,N/A,,Clear,220,2012-11-27 14:15:00
8:35 AM,21.7,18.9,89,30.18,10.0,Calm,Calm,-,N/A,,Clear,0,2012-11-27 14:35:00
8:55 AM,24.4,21.0,87,30.18,10.0,WSW,8.1,-,N/A,,Clear,250,2012-11-27 14:55:00
9:15 AM,27.1,22.6,83,30.18,10.0,WSW,9.2,-,N/A,,Clear,250,2012-11-27 15:15:00
9:35 AM,28.4,23.0,80,30.17,10.0,WSW,10.4,-,N/A,,Clear,240,2012-11-27 15:35:00
9:55 AM,30.9,23.7,75,30.17,10.0,WSW,15.0,-,N/A,,Clear,240,2012-11-27 15:55:00
10:15 AM,32.7,24.1,71,30.17,10.0,WSW,9.2,-,N/A,,Clear,240,2012-11-27 16:15:00
10:35 AM,36.1,25.0,64,30.17,10.0,SW,8.1,-,N/A,,Clear,230,2012-11-27 16:35:00
10:55 AM,38.7,25.2,58,30.17,10.0,SW,6.9,-,N/A,,Clear,230,2012-11-27 16:55:00
11:15 AM,41.5,25.3,53,30.17,10.0,WSW,4.6,-,N/A,,Clear,240,2012-11-27 17:15:00
11:35 AM,44.8,25.0,46,30.15,10.0,WSW,3.5,-,N/A,,Clear,240,2012-11-27 17:35:00
11:55 AM,46.6,24.8,43,30.14,10.0,Calm,Calm,-,N/A,,Clear,0,2012-11-27 17:55:00
12:15 PM,48.4,24.4,39,30.14,10.0,Calm,Calm,-,N/A,,Clear,0,2012-11-27 18:15:00
12:35 PM,50.4,23.5,35,30.12,10.0,Calm,Calm,-,N/A,,Clear,0,2012-11-27 18:35:00
12:55 PM,52.7,21.6,30,30.11,10.0,Calm,Calm,-,N/A,,Clear,0,2012-11-27 18:55:00
1:15 PM,55.0,20.8,26,30.10,10.0,ESE,3.5,-,N/A,,Clear,120,2012-11-27 19:15:00
1:35 PM,55.8,20.3,25,30.10,10.0,ESE,4.6,-,N/A,,Clear,120,2012-11-27 19:35:00
1:55 PM,58.1,18.1,21,30.09,10.0,Calm,Calm,-,N/A,,Clear,0,2012-11-27 19:55:00
2:15 PM,59.2,14.4,17,30.08,10.0,East,4.6,-,N/A,,Clear,80,2012-11-27 20:15:00
2:35 PM,60.1,14.9,17,30.08,10.0,East,5.8,-,N/A,,Clear,100,2012-11-27 20:35:00
2:55 PM,60.8,14.4,16,30.08,10.0,NNE,3.5,-,N/A,,Clear,30,2012-11-27 20:55:00
3:15 PM,61.7,13.8,15,30.08,10.0,NE,6.9,-,N/A,,Clear,40,2012-11-27 21:15:00
3:35 PM,61.9,12.2,14,30.08,10.0,NE,8.1,-,N/A,,Clear,50,2012-11-27 21:35:00
3:55 PM,61.2,12.7,15,30.08,10.0,NE,8.1,-,N/A,,Clear,50,2012-11-27 21:55:00
4:15 PM,58.6,12.0,16,30.09,10.0,NNE,12.7,-,N/A,,Clear,30,2012-11-27 22:15:00
4:35 PM,55.4,11.1,17,30.10,10.0,NNE,8.1,-,N/A,,Clear,30,2012-11-27 22:35:00
5:15 PM,48.6,14.5,26,30.12,10.0,NE,10.4,-,N/A,,Clear,50,2012-11-27 23:15:00
5:35 PM,43.5,14.0,30,30.14,10.0,ENE,9.2,-,N/A,,Clear,60,2012-11-27 23:35:00
5:55 PM,40.8,14.9,35,30.15,10.0,ENE,9.2,-,N/A,,Clear,60,2012-11-27 23:55:00
6:15 PM,41.0,16.3,37,30.15,10.0,East,10.4,-,N/A,,Clear,80,2012-11-28 00:15:00
6:55 PM,39.9,17.4,40,30.16,10.0,ESE,10.4,-,N/A,,Clear,110,2012-11-28 00:55:00
7:15 PM,37.4,17.8,45,30.17,10.0,East,10.4,-,N/A,,Clear,90,2012-11-28 01:15:00
7:35 PM,37.9,18.9,46,30.18,10.0,ESE,9.2,-,N/A,,Clear,110,2012-11-28 01:35:00
7:55 PM,36.3,19.2,50,30.18,10.0,ESE,10.4,-,N/A,,Clear,110,2012-11-28 01:55:00
8:15 PM,33.8,18.9,54,30.19,10.0,SE,8.1,-,N/A,,Clear,130,2012-11-28 02:15:00
8:35 PM,32.9,18.9,56,30.20,10.0,SE,9.2,-,N/A,,Clear,140,2012-11-28 02:35:00
8:55 PM,31.1,18.5,60,30.21,10.0,SE,10.4,-,N/A,,Clear,130,2012-11-28 02:55:00
9:15 PM,32.4,19.0,58,30.21,10.0,SE,10.4,-,N/A,,Clear,140,2012-11-28 03:15:00
9:35 PM,32.7,19.0,57,30.21,10.0,SE,9.2,-,N/A,,Clear,140,2012-11-28 03:35:00
9:55 PM,30.4,18.5,61,30.22,10.0,Calm,Calm,-,N/A,,Clear,0,2012-11-28 03:55:00
10:15 PM,30.2,18.1,61,30.23,10.0,NNW,3.5,-,N/A,,Clear,330,2012-11-28 04:15:00
10:35 PM,28.6,18.0,64,30.23,10.0,Calm,Calm,-,N/A,,Clear,0,2012-11-28 04:35:00
10:55 PM,29.3,18.5,64,30.23,10.0,Calm,Calm,-,N/A,,Clear,0,2012-11-28 04:55:00
11:15 PM,26.8,17.6,68,30.24,10.0,Calm,Calm,-,N/A,,Clear,0,2012-11-28 05:15:00
11:35 PM,26.6,18.0,70,30.24,10.0,Calm,Calm,-,N/A,,Clear,0,2012-11-28 05:35:00
11:55 PM,28.2,18.3,66,30.24,10.0,Calm,Calm,-,N/A,,Clear,0,2012-11-28 05:55:00